Regional Weather Roundup
Issued by NWS Midland/Odessa, TX

Home | Current Version | Previous Version | Text Only | Print | Product List | Glossary On
Versions: 1 2 3 4 5 6 7 8 9 10 11 12 13 14 15 16 17 18 19 20 21 22 23 24 25 26 27 28 29 30 31 32 33 34 35 36 37 38 39 40 41 42 43 44 45 46 47 48 49 50
000
ASUS44 KMAF 250610
RWRMAF
MIDLAND AREA WEATHER ROUNDUP
NATIONAL WEATHER SERVICE MIDLAND TX
100 AM CDT MON JUL 25 2016

...IN SOUTHWEST TEXAS AND SOUTHEAST NEW MEXICO...

CITY           SKY/WX    TMP DP  RH WIND       PRES   REMARKS
ALPINE         CLEAR     80  57  45 SE10G17   30.15S
ANDREWS        MOCLDY    84  57  40 SE10      30.06R
ARTESIA        CLEAR     88  54  31 SE9G15    30.05R
BIG SPRING     CLEAR     86  59  40 E12       30.04R
CARLSBAD       CLEAR     84  53  34 E5        30.02R
DRYDEN           N/A     88  62  41 SE14G23   29.95R
FORT STOCKTON  CLEAR     84  59  42 SE12      30.01R
GUAD PASS      CLEAR     79  52  38 NE17      30.19R
HOBBS          CLEAR     81  54  39 E9        30.09R
MARFA          CLEAR     74  55  51 N6        30.14R
MIDLAND AIRPK  CLEAR     88  56  34 SE8       30.03R
MIDLAND INTL   CLEAR     88  58  36 E14       30.02R
ODESSA         MOCLDY    88  57  34 SE12      30.04R
PECOS          CLEAR     88  56  34 SE9       29.97S
PRESIDIO       FAIR      91  58  33 NE16G23   29.94R
SEMINOLE       PTCLDY    81  56  42 E6        30.08R
SNYDER           N/A     83  62  50 E9        30.03R
WINK           CLEAR     86  55  34 E8        29.98R
$$
...OTHER STATIONS IN TEXAS...

CITY           SKY/WX    TMP DP  RH WIND       PRES   REMARKS
ABILENE        CLEAR     83  64  52 SE10      30.00R
AMARILLO       MOCLDY    78  59  51 NW7       30.13R
AUSTIN         PTCLDY    83  74  74 S9        29.95R
BROWNSVILLE    CLEAR     82  77  84 SE7       29.92F
CORPUS CHRISTI PTCLDY    81  77  88 S7        29.92S
DALLAS FTW     PTCLDY    86  70  58 SE7       29.93F
DEL RIO        CLEAR     90  70  51 SE17G23   29.89R
EL PASO        MOCLDY    90  50  25 W8        30.03R
HOUSTON INT    MOCLDY    84  76  76 CALM      29.95R
LUBBOCK        PTCLDY    79  59  50 SE8       30.07S
SAN ANGELO     CLEAR     80  62  54 CALM      29.98R
SAN ANTONIO    PTCLDY    82  72  71 SE12      29.97R
WACO           PTCLDY    86  69  56 SE8       29.93S
WICHITA FALLS  NOT AVBL
$$
...OTHER LOCATIONS IN NEW MEXICO...

CITY           SKY/WX    TMP DP  RH WIND       PRES   REMARKS
ALAMAGORDO     CLOUDY    75  55  50 SE5       30.08R
ALBUQUERQUE    MOCLDY    75  55  49 N6        30.24S
CANNON AFB     CLEAR     74  57  55 N15       30.16F
CLOVIS         CLEAR     73  55  53 N12       30.16F
HOLLOMAN AFB   MOCLDY    86  51  29 NW8       30.05R
ROSWELL        CLEAR     82  54  37 NE10      30.08R
RUIDOSO          N/A     68  46  45 W7        30.37R
SANTA FE       CLOUDY    70  50  49 W3        30.28F
TRUTH OR CONSE MOCLDY    81  51  35 N13       30.17R
TUCUMCARI      MOCLDY    72  58  61 SE5       30.14F
$$



USA.gov is the U.S. government's official web portal to all federal, state and local government web resources and services.